Location: Chippewa Lake
(41.0698°N, 81.9010°W)
Time: 21:53:32
(UTC+00:00)

CZ-4C R/B - Pass Details

Date: 09 May 2021
Orbit: 609 x 1392 km, 63.4° (Epoch: 16 June)

Event Time Altitude Azimuth Distance (km) Brightness Sun altitude
Rises 01:51:45 0° 329° (NNW) 3,762 7.0 -13.6°
Reaches altitude 10° 01:54:34 10° 340° (NNW) 2,930 5.9 -14.1°
Maximum altitude 02:00:49 31° 41° (NE) 1,985 4.1 -15.0°
Enters shadow 02:06:49 14° 96° (E) 3,054 4.6 -15.8°
